Location: La Fredeussais
(48.1780°N, 1.3980°W)
Time: 09:39:33
(UTC+00:00)

Iridium 4 Rocket - Pass Details

Date: 09 May 2021
Orbit: 583 x 906 km, 86.9° (Epoch: 13 June)

Event Time Altitude Azimuth Distance (km) Brightness Sun altitude
Exits shadow 21:18:18 21° 150° (SSE) 1,843 4.8 -14.8°
Maximum altitude 21:21:52 49° 85° (E) 1,137 4.1 -15.1°
Drops below altitude 10° 21:27:33 10° 12° (NNE) 2,599 6.8 -15.7°
Sets 21:30:06 0° 8° (N) 3,544 7.6 -16.0°
